When you browse on this site, cookies collect data to enhance your experience and personalize the content and advertising you see.
Visit our Privacy Policy to learn more. By continuing to use the site, you agree to this use of cookies and data.
  • In Hungary
  • List of Countries
  • For 7 days
  • Water Temperature
  • Satellite Maps
  • Weather Map
  • News
  • Weather Widgets
  • user-avatar
    Login

    Hourly Weather Midlothian

    Today, 15 December, Saturday

    Time Temperature Precipitation Wind Pressure Humidity
    00:00 -4°C° 0 mm 8 mps 739 mmHg 74%
    01:00 -4°C° 0 mm 8 mps 738 mmHg 73%
    02:00 -4°C° 0 mm 8 mps 738 mmHg 73%
    03:00 -4°C° 0 mm 9 mps 737 mmHg 72%
    04:00 -4°C° 0.1 mm 9 mps 736 mmHg 72%
    05:00 -4°C° 0.1 mm 9 mps 736 mmHg 71%
    06:00 -3°C° 0.1 mm 9 mps 735 mmHg 71%
    07:00 -4°C° 0.1 mm 9 mps 735 mmHg 71%
    08:00 -4°C° 0.1 mm 9 mps 734 mmHg 71%
    09:00 -4°C° 0.1 mm 10 mps 733 mmHg 71%
    10:00 -4°C° 0.2 mm 10 mps 732 mmHg 73%
    11:00 -4°C° 0.2 mm 10 mps 731 mmHg 75%
    12:00 -4°C° 0.2 mm 11 mps 730 mmHg 76%
    13:00 -3°C° 0.3 mm 11 mps 729 mmHg 78%
    14:00 -3°C° 0.3 mm 12 mps 727 mmHg 80%
    15:00 -3°C° 0.3 mm 12 mps 725 mmHg 81%
    16:00 -4°C° 1.7 mm 13 mps 724 mmHg 84%
    17:00 -4°C° 1.7 mm 13 mps 723 mmHg 86%
    18:00 -2°C° 1.7 mm 13 mps 721 mmHg 88%
    19:00 -2°C° 1.4 mm 12 mps 720 mmHg 89%
    20:00 -2°C° 1.4 mm 12 mps 719 mmHg 90%
    21:00 -2°C° 1.4 mm 11 mps 719 mmHg 91%
    22:00 -2°C° 1.5 mm 10 mps 718 mmHg 93%
    23:00 0°C° 1.5 mm 8 mps 718 mmHg 94%

    Tomorrow, 16 December, Sunday

    Time Temperature Precipitation Wind Pressure Humidity
    00:00 0°C° 1.5 mm 7 mps 718 mmHg 96%
    01:00 0°C° 0.6 mm 7 mps 718 mmHg 93%
    02:00 0°C° 0.6 mm 8 mps 719 mmHg 90%
    03:00 0°C° 0.6 mm 9 mps 719 mmHg 86%
    04:00 0°C° 0.1 mm 8 mps 720 mmHg 87%
    05:00 0°C° 0.1 mm 8 mps 721 mmHg 87%
    06:00 0°C° 0.1 mm 8 mps 721 mmHg 87%
    07:00 0°C° 0 mm 7 mps 722 mmHg 88%
    08:00 -1°C° 0 mm 6 mps 723 mmHg 89%
    09:00 -1°C° 0 mm 6 mps 724 mmHg 90%
    10:00 -1°C° 0 mm 6 mps 724 mmHg 90%
    11:00 +1°C° 0 mm 5 mps 725 mmHg 90%
    12:00 +1°C° 0 mm 5 mps 725 mmHg 90%
    13:00 +1°C° 0 mm 5 mps 726 mmHg 91%
    14:00 +1°C° 0 mm 4 mps 726 mmHg 92%
    15:00 +1°C° 0 mm 3 mps 726 mmHg 93%
    16:00 +1°C° 0 mm 3 mps 727 mmHg 93%
    17:00 0°C° 0 mm 3 mps 727 mmHg 94%
    18:00 0°C° 0 mm 3 mps 727 mmHg 94%
    19:00 0°C° 0 mm 3 mps 727 mmHg 94%
    20:00 0°C° 0 mm 3 mps 728 mmHg 94%
    21:00 -1°C° 0 mm 3 mps 728 mmHg 94%
    22:00 0°C° 0 mm 3 mps 728 mmHg 94%
    23:00 0°C° 0 mm 3 mps 729 mmHg 94%

    Day after tomorrow, 17 December, Monday

    Time Temperature Precipitation Wind Pressure Humidity
    00:00 0°C° 0 mm 3 mps 729 mmHg 94%
    01:00 -1°C° 0 mm 4 mps 729 mmHg 94%
    02:00 -1°C° 0 mm 4 mps 730 mmHg 94%
    03:00 -1°C° 0 mm 4 mps 730 mmHg 94%
    04:00 -1°C° 0 mm 4 mps 731 mmHg 94%
    05:00 -1°C° 0 mm 4 mps 731 mmHg 94%
    06:00 -1°C° 0 mm 4 mps 732 mmHg 94%
    07:00 -1°C° 0 mm 4 mps 732 mmHg 93%
    08:00 -2°C° 0 mm 4 mps 733 mmHg 93%
    09:00 -2°C° 0 mm 4 mps 733 mmHg 93%
    10:00 -1°C° 0 mm 4 mps 734 mmHg 92%
    11:00 0°C° 0 mm 4 mps 734 mmHg 91%
    12:00 +1°C° 0 mm 4 mps 735 mmHg 91%
    13:00 +1°C° 0 mm 4 mps 734 mmHg 91%
    14:00 +1°C° 0 mm 4 mps 734 mmHg 91%
    15:00 +1°C° 0 mm 4 mps 734 mmHg 91%
    16:00 +1°C° 0 mm 5 mps 734 mmHg 91%
    17:00 +2°C° 0 mm 5 mps 734 mmHg 92%
    18:00 +2°C° 0 mm 6 mps 733 mmHg 92%
    19:00 +2°C° 0.1 mm 6 mps 733 mmHg 92%
    20:00 +3°C° 0.1 mm 7 mps 733 mmHg 91%
    21:00 +3°C° 0.1 mm 7 mps 733 mmHg 91%
    22:00 +2°C° 0.2 mm 8 mps 733 mmHg 91%
    23:00 +4°C° 0.2 mm 8 mps 732 mmHg 90%

    18 December, Tuesday

    Time Temperature Precipitation Wind Pressure Humidity
    00:00 +4°C° 0.2 mm 8 mps 732 mmHg 90%
    01:00 +4°C° 0 mm 8 mps 731 mmHg 90%
    02:00 +5°C° 0 mm 8 mps 731 mmHg 89%
    03:00 +5°C° 0 mm 8 mps 730 mmHg 88%
    04:00 +5°C° 0.1 mm 8 mps 730 mmHg 88%
    05:00 +5°C° 0.1 mm 9 mps 729 mmHg 87%
    06:00 +6°C° 0.1 mm 9 mps 729 mmHg 87%
    07:00 +6°C° 0.1 mm 9 mps 728 mmHg 86%
    08:00 +6°C° 0.1 mm 9 mps 728 mmHg 85%
    09:00 +6°C° 0.1 mm 9 mps 727 mmHg 85%
    10:00 +6°C° 0.2 mm 10 mps 727 mmHg 84%
    11:00 +6°C° 0.2 mm 10 mps 727 mmHg 84%
    12:00 +5°C° 0.2 mm 10 mps 726 mmHg 83%
    13:00 +5°C° 0.5 mm 10 mps 726 mmHg 83%
    14:00 +5°C° 0.5 mm 10 mps 725 mmHg 83%
    15:00 +5°C° 0.5 mm 10 mps 725 mmHg 83%
    16:00 +3°C° 0.8 mm 10 mps 724 mmHg 84%
    17:00 +3°C° 0.8 mm 9 mps 724 mmHg 85%
    18:00 +3°C° 0.8 mm 9 mps 724 mmHg 86%
    19:00 +4°C° 0.4 mm 8 mps 724 mmHg 88%
    20:00 +4°C° 0.4 mm 7 mps 724 mmHg 89%
    21:00 +4°C° 0.4 mm 6 mps 724 mmHg 91%
    22:00 +3°C° 0.2 mm 5 mps 724 mmHg 92%
    23:00 +4°C° 0.2 mm 4 mps 724 mmHg 94%

    19 December, Wednesday

    Time Temperature Precipitation Wind Pressure Humidity
    00:00 +4°C° 0.2 mm 3 mps 724 mmHg 95%
    01:00 +3°C° 0.1 mm 3 mps 725 mmHg 95%
    02:00 +3°C° 0.1 mm 3 mps 725 mmHg 94%
    03:00 +3°C° 0.1 mm 3 mps 725 mmHg 94%
    04:00 +3°C° 0 mm 4 mps 725 mmHg 93%
    05:00 +3°C° 0 mm 4 mps 725 mmHg 92%
    06:00 +1°C° 0 mm 4 mps 726 mmHg 90%
    07:00 +1°C° 0 mm 4 mps 726 mmHg 90%
    08:00 +1°C° 0 mm 5 mps 727 mmHg 89%
    09:00 0°C° 0 mm 5 mps 727 mmHg 89%
    10:00 +1°C° 0 mm 5 mps 727 mmHg 86%
    11:00 +2°C° 0 mm 5 mps 728 mmHg 83%
    12:00 +2°C° 0 mm 6 mps 728 mmHg 80%
    13:00 +2°C° 0 mm 6 mps 728 mmHg 81%
    14:00 +2°C° 0 mm 6 mps 728 mmHg 81%
    15:00 +2°C° 0 mm 5 mps 728 mmHg 82%
    16:00 +2°C° 0 mm 6 mps 728 mmHg 83%
    17:00 +2°C° 0 mm 6 mps 727 mmHg 85%
    18:00 +2°C° 0 mm 6 mps 727 mmHg 86%
    19:00 +2°C° 0.1 mm 6 mps 727 mmHg 87%
    20:00 +2°C° 0.1 mm 6 mps 727 mmHg 88%
    21:00 +2°C° 0.1 mm 6 mps 727 mmHg 89%
    22:00 +2°C° 0.1 mm 6 mps 727 mmHg 89%
    23:00 +2°C° 0.1 mm 6 mps 727 mmHg 89%

    20 December, Thursday

    Time Temperature Precipitation Wind Pressure Humidity
    00:00 +1°C° 0.1 mm 6 mps 726 mmHg 89%
    01:00 +2°C° 0.1 mm 6 mps 726 mmHg 90%
    02:00 +2°C° 0.1 mm 6 mps 726 mmHg 90%
    03:00 +2°C° 0.1 mm 6 mps 727 mmHg 91%
    04:00 +2°C° 0.2 mm 5 mps 727 mmHg 91%
    05:00 +2°C° 0.2 mm 5 mps 727 mmHg 91%
    06:00 +2°C° 0.2 mm 5 mps 727 mmHg 92%
    07:00 +2°C° 0 mm 5 mps 728 mmHg 92%
    08:00 +2°C° 0 mm 5 mps 728 mmHg 93%
    09:00 +1°C° 0 mm 5 mps 728 mmHg 93%
    10:00 +3°C° 0 mm 4 mps 729 mmHg 92%
    11:00 +4°C° 0 mm 4 mps 729 mmHg 90%
    12:00 +4°C° 0 mm 4 mps 730 mmHg 89%
    13:00 +4°C° 0 mm 4 mps 730 mmHg 90%
    14:00 +3°C° 0 mm 3 mps 730 mmHg 92%
    15:00 +3°C° 0 mm 3 mps 731 mmHg 93%
    16:00 +3°C° 0 mm 3 mps 731 mmHg 94%
    17:00 +2°C° 0 mm 3 mps 731 mmHg 95%
    18:00 +2°C° 0 mm 3 mps 732 mmHg 95%
    19:00 +2°C° 0 mm 3 mps 732 mmHg 95%
    20:00 +1°C° 0 mm 3 mps 732 mmHg 96%
    21:00 +1°C° 0 mm 3 mps 732 mmHg 96%
    22:00 +1°C° 0 mm 3 mps 731 mmHg 96%
    23:00 +2°C° 0 mm 3 mps 731 mmHg 96%
    Show more